Saint Charles, IL

12:36 AM CST on February 28, 2017 (GMT -0600)
Du Page

Weather History for KDPA - April, 2014

Change the Weather History Date:

Friday, April 4, 2014

  Actual Average Record
Temperature  
Mean Temperature 40 °F 45 °F  
Max Temperature 45 °F 56 °F 76 °F (2010)
Min Temperature 35 °F 34 °F 23 °F (2013)
Degree Days  
Heating Degree Days 25 20  
Month to date heating degree days 100 82  
Since 1 July heating degree days 6966 5673  
Cooling Degree Days 0 0  
Month to date cooling degree days 0 0  
Year to date cooling degree days 0 0  
Moisture  
Dew Point 34 °F    
Average Humidity 83    
Maximum Humidity 100    
Minimum Humidity 64    
Precipitation  
Precipitation T in 0.08 in 0.62 in (2003)
Month to date precipitation 0.49 0.34  
Year to date precipitation 2.16 5.43  
Sea Level Pressure  
Sea Level Pressure 29.64 in    
Wind  
Wind Speed 16 mph (WSW)    
Max Wind Speed 31 mph    
Max Gust Speed 41 mph    
Visibility 6 miles    
Events Fog , Rain    
T = Trace of Precipitation, MM = Missing Value Source: NWS Daily Summary

Daily Weather History Graph

Daily Weather History Graph

Search for Another Location

Airport or City:

Trip Planner

Search our weather history database for the weather conditions in past years. The results will help you decide how hot, cold, wet, or windy it might be!

Date:

Astronomy

Apr. 04, 2014 Rise Set
Actual Time 6:30 AM CDT 7:21 PM CDT
Civil Twilight 6:02 AM CDT 7:50 PM CDT
Nautical Twilight 5:28 AM CDT 8:23 PM CDT
Astronomical Twilight 4:54 AM CDT 8:58 PM CDT
Moon 9:44 AM CDT (4/4) No Moon Set
Length of Visible Light 13h 47m
Length of Day
12h 51m
Waxing Crescent, 25% of the Moon is Illuminated
Apr 4
Waxing Crescent
Apr 7
First Quarter
Apr 15
Full
Apr 22
Last Quarter
Apr 29
New

Hourly Weather History & Observations

Time (CDT) Temp. Windchill Dew Point Humidity Pressure Visibility Wind Dir Wind Speed Gust Speed Precip Events Conditions
12:42 AM 39.0 °F 31.8 °F 37.9 °F 96% 29.65 in 1.0 mi ESE 11.5 mph - N/A   Overcast
12:52 AM 39.0 °F 33.4 °F 37.9 °F 96% 29.67 in 1.0 mi East 8.1 mph - N/A   Overcast
1:14 AM 39.0 °F 33.4 °F 37.9 °F 96% 29.65 in 0.8 mi ESE 8.1 mph - N/A   Overcast
1:52 AM 39.0 °F 33.4 °F 37.9 °F 96% 29.63 in 0.8 mi ESE 8.1 mph - N/A   Mist
2:52 AM 39.0 °F 34.8 °F 39.0 °F 100% 29.57 in 0.8 mi ESE 5.8 mph - N/A   Overcast
2:59 AM 39.0 °F 34.0 °F 39.0 °F 100% 29.56 in 1.2 mi ESE 6.9 mph - N/A   Overcast
3:50 AM 39.2 °F 35.0 °F 39.2 °F 100% 29.51 in 0.8 mi ESE 5.8 mph - N/A   Mist
3:52 AM 39.9 °F 34.5 °F 39.0 °F 97% 29.52 in 0.8 mi ESE 8.1 mph - N/A   Mist
4:52 AM 41.0 °F 36.4 °F 41.0 °F 100% 29.48 in 0.8 mi SE 6.9 mph - N/A   Mist
5:52 AM 41.0 °F 37.1 °F 39.9 °F 96% 29.49 in 0.5 mi South 5.8 mph - N/A Fog Fog
6:50 AM 42.8 °F 37.5 °F 41.0 °F 93% 29.48 in 1.0 mi SW 9.2 mph - 0.00 in Rain Light Rain
6:52 AM 42.1 °F 36.6 °F 41.0 °F 96% 29.50 in 1.2 mi SW 9.2 mph - 0.00 in Rain Light Rain
7:40 AM 43.0 °F 36.4 °F 42.1 °F 97% 29.48 in 3.0 mi WSW 12.7 mph - 0.00 in   Overcast
7:52 AM 43.0 °F 35.7 °F 42.1 °F 97% 29.49 in 4.0 mi WSW 15.0 mph - 0.00 in   Overcast
8:19 AM 45.0 °F 36.9 °F 42.1 °F 90% 29.47 in 8.0 mi WSW 20.7 mph - N/A   Mostly Cloudy
8:42 AM 44.1 °F 35.9 °F 42.1 °F 93% 29.47 in 9.0 mi West 19.6 mph 28.8 mph N/A   Mostly Cloudy
8:52 AM 43.0 °F 33.3 °F 39.9 °F 89% 29.49 in 9.0 mi West 25.3 mph 34.5 mph N/A   Overcast
9:52 AM 39.9 °F 30.2 °F 37.0 °F 89% 29.52 in 8.0 mi West 20.7 mph 27.6 mph N/A   Overcast
10:52 AM 39.9 °F 29.7 °F 34.0 °F 79% 29.54 in 10.0 mi West 23.0 mph 34.5 mph N/A   Overcast
11:52 AM 39.0 °F 29.6 °F 33.1 °F 79% 29.56 in 10.0 mi West 18.4 mph 27.6 mph N/A   Overcast
12:52 PM 39.0 °F 29.3 °F 30.9 °F 73% 29.59 in 10.0 mi West 19.6 mph 35.7 mph N/A   Overcast
1:52 PM 39.0 °F 28.5 °F 30.9 °F 73% 29.63 in 10.0 mi West 23.0 mph 29.9 mph N/A   Overcast
2:25 PM 39.0 °F 28.0 °F 30.0 °F 70% 29.62 in 10.0 mi West 25.3 mph 38.0 mph N/A   Overcast
2:38 PM 37.9 °F 28.5 °F 30.0 °F 73% 29.64 in 10.0 mi West 17.3 mph 29.9 mph N/A   Overcast
2:52 PM 37.9 °F 27.1 °F 30.0 °F 73% 29.66 in 10.0 mi West 23.0 mph 31.1 mph N/A   Overcast
3:52 PM 37.9 °F 27.6 °F 28.9 °F 70% 29.70 in 10.0 mi West 20.7 mph 28.8 mph N/A   Overcast
4:07 PM 37.9 °F 27.1 °F 28.0 °F 68% 29.69 in 10.0 mi West 23.0 mph 31.1 mph N/A   Overcast
4:52 PM 37.9 °F 27.9 °F 27.0 °F 65% 29.74 in 10.0 mi West 19.6 mph 27.6 mph N/A   Overcast
5:52 PM 37.9 °F 28.5 °F 27.0 °F 65% 29.79 in 10.0 mi West 17.3 mph 29.9 mph N/A   Overcast
6:52 PM 37.0 °F 28.1 °F 26.1 °F 65% 29.83 in 10.0 mi West 15.0 mph 26.5 mph N/A   Overcast
7:52 PM 37.0 °F 27.7 °F 27.0 °F 67% 29.87 in 10.0 mi West 16.1 mph 26.5 mph N/A   Overcast
8:52 PM 37.0 °F 28.9 °F 26.1 °F 65% 29.92 in 10.0 mi WNW 12.7 mph 21.9 mph N/A   Overcast
9:52 PM 36.0 °F 24.2 °F 25.0 °F 64% 29.97 in 10.0 mi NW 24.2 mph 36.8 mph N/A   Overcast
10:52 PM 36.0 °F 25.6 °F 25.0 °F 64% 30.00 in 10.0 mi NW 18.4 mph 27.6 mph N/A   Overcast
11:52 PM 35.1 °F 25.9 °F 26.1 °F 70% 30.02 in 10.0 mi NW 13.8 mph - N/A   Mostly Cloudy